Regional Weather Roundup
Issued by NWS

Home | Current Version | Previous Version | Text Only | Print | Product List | Glossary On
Versions: 1 2 3 4 5 6 7 8 9 10 11 12 13 14 15 16 17 18 19 20 21 22 23 24 25 26 27 28 29 30 31 32 33 34 35 36 37 38 39 40 41 42 43 44 45 46 47 48 49 50
000
ASUS45 KBOI 031710
RWRID

IDAHO REGIONAL WEATHER ROUNDUP
NATIONAL WEATHER SERVICE BOISE ID
1100 AM MDT FRI JUL 03 2015

NOTE: "FAIR" INDICATES FEW OR NO CLOUDS BELOW 12000 FEET
WITH NO SIGNIFICANT WEATHER AND/OR OBSTRUCTIONS TO VISIBILITY

IDZ012-014-031800-
SOUTHWEST IDAHO


CITY           SKY/WX    TMP DP  RH WIND       PRES   REMARKS
BOISE          SUNNY     87  49  26 NW6       29.94F
CALDWELL       SUNNY     90  46  22 W8        29.94S
MOUNTAIN HOME  SUNNY     92  40  16 NW16      29.93S
$$

IDZ016-017-031800-
SOUTHCENTRAL IDAHO


CITY           SKY/WX    TMP DP  RH WIND       PRES   REMARKS
BURLEY         SUNNY     84  46  26 W7        30.02S
JEROME         SUNNY     83  40  21 SW8       30.02F
TWIN FALLS     SUNNY     90  43  19 W10       30.00F
$$

IDZ019>023-031800-
SOUTHEAST IDAHO


CITY           SKY/WX    TMP DP  RH WIND       PRES   REMARKS
IDAHO FALLS    SUNNY     80  49  33 S13       30.05F
POCATELLO      SUNNY     84  48  28 W14       30.05F
REXBURG        SUNNY     80  46  30 SW14      30.06F
$$

IDZ006-010-011-018-031-032-031800-
CENTRAL IDAHO MOUNTAINS


CITY           SKY/WX    TMP DP  RH WIND       PRES   REMARKS
MCCALL         MOSUNNY   78  46  32 SE3       30.09F
HAILEY         MOSUNNY   81  50  34 SE12      30.11F
STANLEY          N/A     73  44  35 CALM      30.20F
SALMON         SUNNY     75  43  31 CALM      30.02F
CHALLIS        SUNNY     80  41  24 VRB3      30.08F
$$

IDZ002-004-006-007-026-031800-
NORTHERN IDAHO


CITY           SKY/WX    TMP DP  RH WIND       PRES   REMARKS
LEWISTON       SUNNY     85  51  31 VRB3      29.90F
LOWELL           N/A     78  49  35 CALM      29.94F
COEUR D`ALENE  MOSUNNY   82  54  36 SW3       29.93S
MULLAN PASS    SUNNY     74  40  29 NW9       30.17S
$$


USA.gov is the U.S. government's official web portal to all federal, state and local government web resources and services.